SCP
0 0 0 0 0 0 0 0 0 0 0 0 0 0 0 0 0 0 0 0 0 0 0 0 0 0 0 1 1 1 1 1 1 1 1 1 1 1 1 1 1 1 1
0 0 0 0 0 0 0 1 0 0 0 0 0 0 0 0 0 0 0 0 0 0 0 0 0 0 1 1 1 1 1 0 1 1 1 1 1 1 1 1 1 1 1
0 0 0 0 0 0 0 1 0 0 0 0 0 0 0 0 0 0 0 0 0 0 0 0 0 1 1 1 1 1 1 0 0 1 1 1 1 1 1 1 1 1 1
0 0 0 0 0 0 0 0 0 0 0 0 0 0 0 0 0 0 0 0 0 0 0 0 0 1 1 1 1 1 1 0 0 0 0 1 1 1 1 1 1 1 1
0 0 0 0 0 0 0 0 0 0 0 0 0 0 0 0 0 0 0 0 0 0 0 0 0 0 1 1 1 1 1 1 0 0 0 0 0 0 0 0 0 1 1
0 0 0 0 0 0 0 0 0 0 0 0 0 0 0 0 0 0 0 0 0 0 0 0 0 0 0 1 1 1 1 1 1 0 0 0 0 0 0 0 0 1 1
0 0 0 0 0 0 0 0 0 0 0 0 0 0 0 0 0 0 0 0 0 0 0 0 0 0 0 0 1 1 1 1 1 0 0 0 0 0 0 0 0 0 0
0 0 0 0 0 0 0 0 0 0 0 0 0 0 0 0 0 0 0 0 0 0 0 0 0 0 0 0 1 1 1 1 1 0 0 0 0 0 0 0 0 0 0
0 0 0 0 0 0 0 0 0 0 0 0 0 0 0 0 0 0 0 0 0 0 0 0 0 0 0 0 0 0 1 1 1 0 0 0 0 0 0 0 0 0 0
0 0 0 0 0 0 0 0 0 0 0 0 0 0 0 0 0 0 0 0 0 0 0 0 0 0 0 0 0 0 0 0 0 0 0 0 0 0 0 0 0 0 0
0 0 0 0 0 0 0 0 0 0 0 0 0 0 0 0 0 0 0 0 0 0 0 0 0 0 0 0 0 0 0 0 0 0 0 0 0 0 0 1 1 0 0
0 0 0 0 0 0 0 0 0 0 0 0 0 0 0 0 0 0 0 0 0 0 0 0 0 0 0 0 0 0 0 0 0 0 0 0 0 0 0 0 0 0 0
0 0 0 0 0 0 0 0 0 0 0 0 0 0 0 0 0 0 0 0 0 0 0 0 0 0 0 0 0 0 0 0 0 0 0 0 0 0 0 1 1 1 0
0 0 0 0 0 0 0 0 0 0 0 0 0 0 0 0 0 0 0 0 0 0 0 0 0 0 0 0 0 0 0 0 0 0 0 0 1 1 1 1 1 1 1
0 0 0 0 0 0 0 0 0 0 0 0 0 0 0 0 0 0 0 0 0 0 0 0 0 0 0 0 0 0 0 0 0 0 0 1 1 1 1 1 1 1 1
0 0 0 0 0 0 0 0 0 0 0 0 0 0 0 0 0 0 0 0 0 0 0 0 0 0 0 0 0 0 0 0 0 0 0 0 1 1 1 1 1 1 1
0 0 0 0 0 0 0 0 0 0 0 0 0 0 0 0 0 0 0 0 0 0 0 0 0 0 0 0 0 0 0 0 0 0 0 0 1 1 1 1 1 1 1
0 1 1 1 1 0 0 0 0 0 0 0 0 0 0 0 0 0 0 0 0 0 0 0 0 0 0 0 0 0 0 0 0 0 0 0 0 0 1 1 1 1 1
0 1 1 1 1 1 1 1 0 0 0 0 0 0 0 0 0 0 0 0 0 0 0 0 0 0 0 0 0 0 0 0 0 0 0 0 0 0 0 1 1 1 1
1 1 1 1 1 1 1 1 1 1 0 0 0 0 0 0 0 0 0 0 0 0 0 0 0 0 0 0 0 0 0 0 0 0 0 0 0 0 0 0 0 0 0
1 1 2 2 2 2 2 2 1 1 1 0 0 0 0 0 0 0 0 0 0 0 0 0 0 0 0 0 0 0 0 0 0 0 0 0 0 0 0 0 0 0 0
1 1 2 2 3 3 3 2 2 1 1 1 0 0 0 0 0 0 0 0 0 0 0 0 0 0 0 0 0 0 0 0 0 0 0 0 0 0 0 0 0 0 0
2 2 2 3 3 4 3 3 2 2 1 1 1 0 0 0 0 0 0 0 0 0 0 0 0 0 0 0 0 0 0 0 0 0 0 0 0 0 0 0 0 0 0
3 3 3 4 4 4 4 3 3 2 1 1 1 0 0 0 0 0 0 0 0 0 0 0 0 0 0 0 0 0 0 0 0 0 0 0 0 0 0 0 0 0 0
3 4 4 5 5 4 4 3 3 2 2 1 1 0 0 0 0 0 0 0 0 0 0 0 0 0 0 0 0 0 0 0 0 0 0 0 0 0 0 0 0 0 0
4 4 5 5 4 4 3 3 3 2 2 1 1 0 0 0 0 0 0 0 0 0 0 0 0 0 0 0 0 0 0 0 0 0 0 0 0 0 0 0 0 0 0
Wind_Speed
4 5 10 11 11 10 11 11 12 12 12 13 13 13 12 12 11 11 10 10 9 9 8 8 8 8 8 8 8 8 9 9 9 9 9 8 7 6 6 6 5 3 5
8 7 12 12 11 11 11 11 11 11 12 12 12 12 12 11 11 10 10 9 9 9 8 8 8 8 8 8 8 8 8 9 9 8 8 7 7 6 6 6 5 3 4
10 7 10 12 12 11 11 11 11 11 11 11 12 11 11 10 10 9 9 9 9 9 9 8 9 9 8 8 7 7 7 7 8 8 7 4 4 6 6 6 5 5 5
11 7 8 13 12 11 11 11 11 11 11 11 11 11 11 10 9 9 9 9 9 8 8 9 9 9 8 8 7 6 6 6 7 7 4 3 2 5 6 5 6 6 6
9 6 8 14 12 12 11 11 10 10 10 10 10 10 10 10 9 8 8 8 8 8 8 8 8 9 8 7 6 5 6 6 7 6 3 3 2 4 6 5 6 7 7
8 6 8 14 13 12 11 11 10 10 10 10 10 10 10 9 8 8 7 7 7 7 7 8 8 9 8 8 7 6 6 7 7 4 3 3 2 4 5 5 6 7 7
8 6 7 13 13 12 11 11 10 10 10 10 10 10 10 9 8 7 7 6 6 6 6 7 8 8 8 8 7 7 8 8 5 4 3 2 1 4 5 5 6 7 7
9 7 7 13 13 12 11 11 10 10 10 10 10 10 10 9 8 7 6 5 5 4 5 6 7 8 8 8 7 7 7 7 5 4 3 1 2 4 5 6 6 7 7
7 7 5 6 9 12 12 11 11 10 10 10 10 10 10 9 8 7 6 5 4 3 3 5 6 7 7 7 6 6 7 9 5 3 2 1 3 5 6 6 6 7 7
5 6 5 5 5 5 7 11 12 11 10 10 10 10 10 9 7 7 6 5 4 3 3 4 5 6 7 7 6 7 8 7 4 3 2 1 4 5 6 7 7 7 7
6 5 5 5 5 5 5 8 9 11 11 10 9 10 8 4 3 3 4 5 4 3 2 3 4 6 7 6 6 7 6 3 3 2 2 2 5 6 6 7 7 7 7
9 8 6 6 6 5 6 4 3 4 5 5 4 5 4 3 2 3 3 6 5 3 2 3 4 6 5 3 4 5 3 3 3 2 2 2 4 5 6 6 6 6 6
8 8 8 7 6 6 4 4 3 2 3 4 5 5 4 3 2 2 0 1 1 2 3 3 4 2 2 2 2 3 3 2 2 2 2 1 3 4 5 5 5 6 6
7 9 9 8 6 6 4 4 4 3 3 3 4 5 4 3 2 2 1 1 1 1 1 2 1 1 1 2 3 3 3 2 2 2 2 1 2 3 4 5 5 5 5
9 10 9 10 8 6 5 4 5 4 4 4 4 5 5 4 3 2 2 1 1 1 0 1 1 1 1 3 3 3 3 2 2 2 2 4 3 2 4 4 4 5 4
11 11 10 11 10 8 6 5 5 4 4 4 4 5 6 4 4 3 3 2 2 2 2 1 0 1 2 3 3 3 3 2 2 3 3 4 5 5 4 4 4 4 4
11 11 11 11 10 10 8 7 5 5 5 5 4 5 6 5 4 4 3 3 3 3 2 1 1 2 2 3 3 3 2 2 2 3 3 3 3 5 5 5 4 4 4
9 10 12 11 12 11 9 7 5 5 5 5 5 5 6 6 6 4 4 4 3 3 3 2 2 2 2 3 3 2 2 2 2 2 3 3 3 3 4 6 5 5 5
11 11 12 11 12 12 10 7 5 5 5 5 5 5 6 7 7 5 4 4 3 2 2 3 2 2 3 3 3 2 1 1 1 2 2 3 3 3 3 5 7 7 6
12 12 12 12 10 10 7 5 4 4 4 4 4 5 7 6 7 6 4 4 3 2 3 3 3 2 2 3 3 2 1 0 0 0 1 1 2 3 3 3 4 5 7
13 14 14 13 11 9 7 6 5 5 4 4 4 5 6 6 7 6 5 5 4 4 4 4 3 3 2 3 3 2 2 1 1 1 1 1 0 1 1 2 2 2 3
16 16 15 14 12 11 8 6 3 3 2 2 2 4 5 6 6 6 6 5 5 4 4 5 4 3 2 3 3 3 1 2 2 2 2 2 2 1 1 1 0 1 1
13 14 12 12 10 9 7 4 3 3 2 2 3 3 4 5 5 5 6 5 5 6 6 6 6 6 4 3 2 4 4 4 2 1 2 3 3 2 2 2 2 1 1
8 8 8 9 9 8 8 5 5 4 4 4 3 2 3 4 5 5 5 6 5 5 5 6 6 5 5 4 2 1 1 3 3 2 1 2 3 4 4 3 3 3 3
2 5 7 9 8 7 6 5 3 3 3 2 2 3 3 3 4 5 5 5 5 5 6 6 6 6 5 5 4 3 2 1 1 3 2 2 2 3 4 4 4 4 4
8 8 10 11 9 5 4 2 4 5 4 3 3 3 2 1 2 3 4 4 5 4 5 6 7 8 7 6 5 4 4 3 3 3 3 2 3 3 3 3 4 4 4
Wind_Direction
165 172 161 144 138 133 129 128 128 125 123 121 119 116 112 108 102 98 95 91 88 87 89 93 97 99 97 98 104 113 118 121 120 119 116 112 112 114 120 119 110 106 115
150 161 158 148 142 137 132 132 132 130 127 125 122 119 115 110 106 102 97 94 90 88 88 93 97 98 97 96 102 112 117 118 118 117 110 102 101 101 105 110 110 109 111
144 156 155 152 147 141 138 137 135 133 132 130 128 124 120 114 111 106 100 97 93 89 87 90 94 95 94 92 98 110 117 120 121 114 98 82 90 97 98 101 106 104 104
147 150 153 156 151 147 144 142 140 139 138 136 135 131 125 119 115 111 105 100 95 90 87 86 89 91 92 90 91 104 118 124 124 114 89 74 81 104 102 100 104 104 103
145 144 160 159 156 153 151 148 146 144 142 141 140 136 129 124 119 116 111 104 99 93 87 82 81 83 82 79 76 88 109 119 119 105 95 73 62 110 109 110 111 111 108
143 144 165 162 160 158 157 155 153 150 148 146 144 139 134 130 127 123 117 112 106 98 89 79 74 74 71 66 62 72 96 100 94 92 96 89 79 120 112 113 117 119 115
145 150 167 165 165 164 164 163 160 158 156 154 149 143 141 139 135 132 127 122 116 105 91 76 69 68 64 57 54 69 90 93 84 83 87 90 117 138 126 123 123 124 118
153 156 167 171 169 170 170 169 167 166 164 160 155 149 147 144 141 141 139 136 129 112 91 72 64 62 58 51 51 67 85 88 84 76 78 85 161 149 143 138 131 129 124
156 158 166 169 171 174 175 174 173 172 170 164 159 154 153 149 148 150 150 151 145 124 94 71 62 60 56 50 52 77 89 84 73 62 74 76 150 143 137 134 132 132 129
157 163 164 164 163 166 173 178 176 175 174 168 163 161 159 157 158 161 160 164 163 149 108 74 64 64 60 55 67 90 89 76 62 52 36 94 126 126 125 127 130 132 130
173 172 167 166 163 161 168 183 178 177 177 172 168 169 158 139 140 152 167 179 176 159 119 78 65 67 62 49 71 90 81 65 58 40 15 102 112 114 118 122 127 129 131
188 185 177 175 169 166 177 170 161 162 164 156 150 149 132 132 145 153 200 194 184 160 105 64 51 63 66 45 62 79 67 61 46 20 357 94 114 112 116 120 125 130 134
189 189 186 182 176 174 173 158 154 146 146 148 150 144 139 138 143 135 112 294 30 67 51 35 43 53 67 75 74 83 78 60 35 6 337 80 120 117 117 121 126 133 139
181 192 187 185 182 183 175 167 161 158 159 160 160 154 148 152 162 162 169 184 71 59 43 18 20 25 76 103 103 102 88 70 44 12 336 38 117 128 127 130 131 138 141
190 194 188 184 184 182 178 177 174 175 173 169 164 166 164 167 179 184 188 189 186 154 162 318 337 342 127 135 128 119 105 84 63 39 6 38 62 98 125 125 132 134 138
198 195 188 186 186 182 185 186 182 180 175 170 175 178 177 178 182 188 197 202 203 184 187 216 256 128 133 133 129 122 111 93 69 54 35 34 52 65 92 111 113 119 127
202 195 191 189 185 186 189 192 187 183 176 181 184 184 186 187 191 192 198 212 209 174 170 161 109 98 113 119 123 123 114 104 88 63 48 37 36 50 67 89 101 105 112
204 198 197 195 189 190 191 191 188 184 185 188 184 186 193 196 196 192 203 221 205 165 159 155 136 116 127 138 139 138 127 122 106 83 59 47 40 37 48 73 80 87 95
209 202 199 199 190 191 189 186 188 184 192 190 185 189 197 200 199 195 209 221 196 172 170 171 152 148 157 158 149 129 133 143 143 113 79 56 49 48 38 51 63 65 74
211 204 202 200 193 182 174 169 175 187 197 193 193 196 196 200 199 197 206 216 192 184 186 175 160 144 142 148 133 96 57 254 205 145 122 74 51 47 48 44 40 41 52
210 204 202 197 189 175 171 176 182 198 197 201 203 199 197 196 194 196 204 202 192 197 199 175 151 145 128 129 104 74 22 2 246 243 204 153 130 42 55 51 42 35 25
213 206 201 197 188 183 184 174 162 153 178 198 200 200 199 194 190 197 197 195 193 192 189 179 157 149 149 157 135 123 86 332 292 224 212 213 208 201 222 214 95 49 32
216 206 196 190 179 172 159 137 113 104 102 146 194 205 202 194 193 197 197 194 192 188 193 188 176 165 164 176 173 153 160 209 245 272 227 218 206 208 228 233 223 222 231
219 195 179 163 148 142 142 155 164 173 193 202 189 191 190 191 194 200 199 196 193 191 193 193 183 174 161 170 180 172 155 159 164 214 278 231 213 217 220 224 221 220 221
93 116 117 107 105 115 128 146 169 200 211 155 146 176 188 193 198 201 201 197 197 197 198 192 184 183 178 174 171 155 137 137 158 154 209 239 238 229 216 216 217 216 215
63 82 94 97 89 91 104 136 204 205 188 165 171 178 183 189 207 208 201 200 199 197 199 197 192 190 192 185 180 170 166 175 188 178 176 198 224 242 222 213 213 212 206